| time (UTC) | temp C | wind direction | speed KPH | gust KPH | rain 1hr cm | rain 24hr cm | rain mn cm | humidity % | barometer mb |
| 20260510131527 | 9 | 186 | 0.0 | 3.2 | 0.00 | 0.00 | 0.00 | 86 | 1017.7 |
| 20260510130007 | 9 | 203 | 0.0 | 11.3 | 0.00 | 0.00 | 0.00 | 87 | 1017.7 |
| 20260510124622 | 8 | 235 | 0.0 | 8.0 | 0.00 | 0.00 | 0.00 | 89 | 1017.7 |
| 20260510123102 | 8 | 205 | 0.0 | 6.4 | 0.00 | 0.00 | 0.00 | 90 | 1017.5 |
| 20260510121554 | 8 | 235 | 0.0 | 3.2 | 0.00 | 0.00 | 0.00 | 90 | 1017.4 |
| 20260510120054 | 8 | 195 | 0.0 | 0.0 | 0.00 | 0.00 | 0.00 | 89 | 1017.3 |
| 20260510114559 | 8 | 195 | 0.0 | 1.6 | 0.00 | 0.00 | 0.00 | 88 | 1017.4 |
| 20260510113154 | 9 | 184 | 0.0 | 1.6 | 0.00 | 0.00 | 0.00 | 86 | 1017.5 |
| 20260510111601 | 10 | 183 | 0.0 | 3.2 | 0.00 | 0.00 | 0.00 | 84 | 1017.3 |
| 20260510110104 | 10 | 222 | 1.6 | 6.4 | 0.00 | 0.00 | 0.00 | 83 | 1017.2 |
| 20260510104559 | 10 | 209 | 4.8 | 11.3 | 0.00 | 0.00 | 0.00 | 84 | 1017.2 |
| 20260510103152 | 10 | 172 | 3.2 | 9.7 | 0.00 | 0.00 | 0.00 | 84 | 1017.2 |
| 20260510101505 | 10 | 214 | 1.6 | 6.4 | 0.00 | 0.00 | 0.00 | 84 | 1017.1 |
| 20260510100112 | 10 | 208 | 3.2 | 8.0 | 0.00 | 0.00 | 0.00 | 84 | 1017.1 |
| 20260510094601 | 10 | 174 | 1.6 | 8.0 | 0.00 | 0.00 | 0.00 | 84 | 1017.2 |
| 20260510093103 | 10 | 172 | 3.2 | 11.3 | 0.00 | 0.00 | 0.00 | 84 | 1017.1 |
| 20260510091502 | 11 | 193 | 4.8 | 11.3 | 0.00 | 0.00 | 0.00 | 84 | 1017.3 |
| 20260510090117 | 11 | 160 | 3.2 | 9.7 | 0.00 | 0.00 | 0.00 | 84 | 1017.2 |
| 20260510084559 | 11 | 202 | 8.0 | 17.7 | 0.00 | 0.00 | 0.00 | 83 | 1017.1 |
| 20260510083104 | 11 | 208 | 4.8 | 12.9 | 0.00 | 0.00 | 0.00 | 83 | 1017.0 |
| 20260510081602 | 11 | 206 | 4.8 | 19.3 | 0.00 | 0.00 | 0.00 | 83 | 1016.8 |
| 20260510080117 | 11 | 203 | 3.2 | 14.5 | 0.00 | 0.00 | 0.00 | 85 | 1017.0 |
| 20260510074607 | 10 | 181 | 3.2 | 12.9 | 0.00 | 0.00 | 0.00 | 86 | 1016.9 |
| 20260510073055 | 10 | 217 | 3.2 | 12.9 | 0.00 | 0.00 | 0.00 | 87 | 1016.8 |
| 20260510071604 | 10 | 191 | 1.6 | 6.4 | 0.00 | 0.00 | 0.00 | 86 | 1016.8 |
| 20260510064604 | 11 | 229 | 4.8 | 12.9 | 0.00 | 0.00 | 0.00 | 85 | 1017.0 |
| 20260510063057 | 11 | 194 | 4.8 | 11.3 | 0.00 | 0.00 | 0.00 | 85 | 1017.0 |
| 20260510061554 | 11 | 158 | 4.8 | 14.5 | 0.00 | 0.00 | 0.00 | 85 | 1016.8 |
| 20260510060100 | 11 | 188 | 4.8 | 12.9 | 0.00 | 0.00 | 0.00 | 85 | 1016.8 |
| 20260510054543 | 11 | 224 | 0.0 | 4.8 | 0.00 | 0.00 | 0.00 | 84 | 1016.8 |
| 20260510053043 | 11 | 219 | 3.2 | 6.4 | 0.00 | 0.00 | 0.00 | 85 | 1016.7 |
| 20260510051555 | 11 | 201 | 1.6 | 6.4 | 0.00 | 0.00 | 0.00 | 85 | 1016.8 |
| 20260510050050 | 11 | 205 | 3.2 | 11.3 | 0.00 | 0.00 | 0.00 | 85 | 1016.9 |
| 20260510044532 | 11 | 100 | 4.8 | 14.5 | 0.00 | 0.00 | 0.00 | 85 | 1017.0 |
| 20260510043039 | 11 | 229 | 8.0 | 17.7 | 0.00 | 0.00 | 0.00 | 86 | 1017.1 |
| 20260510041549 | 11 | 250 | 4.8 | 12.9 | 0.00 | 0.00 | 0.00 | 87 | 1017.1 |
| 20260510040042 | 11 | 222 | 8.0 | 17.7 | 0.00 | 0.00 | 0.00 | 86 | 1017.0 |
| 20260510034524 | 13 | 197 | 6.4 | 11.3 | 0.00 | 0.00 | 0.00 | 78 | 1016.8 |
| 20260510033030 | 15 | 218 | 3.2 | 8.0 | 0.00 | 0.00 | 0.00 | 66 | 1016.6 |
| 20260510031532 | 16 | 331 | 0.0 | 0.0 | 0.00 | 0.00 | 0.00 | 62 | 1016.6 |
| 20260510030016 | 17 | 331 | 0.0 | 0.0 | 0.00 | 0.00 | 0.00 | 59 | 1016.5 |
| 20260510024523 | 17 | 331 | 0.0 | 3.2 | 0.00 | 0.00 | 0.00 | 58 | 1016.6 |
| 20260510023020 | 17 | 331 | 0.0 | 1.6 | 0.00 | 0.00 | 0.00 | 57 | 1016.6 |
| 20260510021523 | 17 | 304 | 0.0 | 3.2 | 0.00 | 0.00 | 0.00 | 58 | 1016.8 |
| 20260510020009 | 17 | 252 | 0.0 | 3.2 | 0.00 | 0.00 | 0.00 | 59 | 1016.9 |
| 20260510014520 | 17 | 347 | 0.0 | 3.2 | 0.00 | 0.00 | 0.00 | 60 | 1017.1 |
| 20260510013015 | 17 | 341 | 1.6 | 4.8 | 0.00 | 0.00 | 0.00 | 57 | 1017.2 |
| 20260510011528 | 17 | 15 | 3.2 | 8.0 | 0.00 | 0.00 | 0.00 | 57 | 1017.5 |
| 20260510010003 | 17 | 317 | 0.0 | 4.8 | 0.00 | 0.00 | 0.00 | 63 | 1017.7 |
| 20260510004502 | 17 | 309 | 0.0 | 3.2 | 0.00 | 0.00 | 0.00 | 59 | 1018.0 |
| 20260510003006 | 17 | 333 | 0.0 | 3.2 | 0.00 | 0.00 | 0.00 | 60 | 1018.2 |
| 20260510001510 | 17 | 350 | 1.6 | 4.8 | 0.00 | 0.00 | 0.00 | 61 | 1018.4 |
| 20260510000132 | 17 | 319 | 0.0 | 6.4 | 0.00 | 0.00 | 0.00 | 60 | 1018.5 |
| 20260509234608 | 17 | 275 | 1.6 | 8.0 | 0.00 | 0.00 | 0.00 | 60 | 1018.8 |
| 20260509233003 | 17 | 335 | 0.0 | 4.8 | 0.00 | 0.00 | 0.00 | 61 | 1018.8 |
| 20260509231526 | 17 | 335 | 3.2 | 6.4 | 0.00 | 0.00 | 0.00 | 60 | 1019.2 |
| 20260509230003 | 18 | 337 | 1.6 | 6.4 | 0.00 | 0.00 | 0.00 | 63 | 1019.3 |
| 20260509224507 | 17 | 325 | 0.0 | 6.4 | 0.00 | 0.00 | 0.00 | 66 | 1019.5 |
| 20260509223014 | 17 | 317 | 0.0 | 8.0 | 0.00 | 0.00 | 0.00 | 66 | 1019.7 |
| 20260509221526 | 17 | 220 | 0.0 | 8.0 | 0.00 | 0.00 | 0.00 | 67 | 1020.0 |
| 20260509220120 | 16 | 249 | 0.0 | 6.4 | 0.00 | 0.00 | 0.00 | 69 | 1020.3 |
| 20260509214501 | 16 | 239 | 1.6 | 9.7 | 0.00 | 0.00 | 0.00 | 71 | 1020.5 |
| 20260509213006 | 16 | 214 | 3.2 | 8.0 | 0.00 | 0.00 | 0.00 | 69 | 1020.7 |
| 20260509211508 | 16 | 237 | 1.6 | 8.0 | 0.00 | 0.00 | 0.00 | 69 | 1020.7 |
| 20260509210005 | 16 | 233 | 0.0 | 6.4 | 0.00 | 0.00 | 0.00 | 69 | 1020.7 |
| 20260509204506 | 15 | 209 | 3.2 | 9.7 | 0.00 | 0.00 | 0.00 | 73 | 1021.1 |
| 20260509203010 | 15 | 255 | 4.8 | 9.7 | 0.00 | 0.00 | 0.00 | 75 | 1021.4 |
| 20260509201514 | 15 | 255 | 4.8 | 11.3 | 0.00 | 0.00 | 0.00 | 73 | 1021.4 |
| 20260509200121 | 15 | 220 | 3.2 | 8.0 | 0.00 | 0.00 | 0.00 | 72 | 1021.2 |
| 20260509194506 | 15 | 328 | 1.6 | 8.0 | 0.00 | 0.00 | 0.00 | 73 | 1021.2 |
| 20260509193009 | 15 | 215 | 4.8 | 11.3 | 0.00 | 0.00 | 0.00 | 74 | 1021.6 |
| 20260509191512 | 14 | 280 | 4.8 | 11.3 | 0.00 | 0.00 | 0.00 | 74 | 1021.7 |
| 20260509190119 | 14 | 195 | 3.2 | 11.3 | 0.00 | 0.00 | 0.00 | 75 | 1021.8 |
| 20260509184604 | 14 | 230 | 3.2 | 9.7 | 0.00 | 0.00 | 0.00 | 76 | 1021.9 |
| 20260509183004 | 15 | 243 | 4.8 | 8.0 | 0.00 | 0.00 | 0.00 | 75 | 1021.9 |
| 20260509181508 | 15 | 218 | 1.6 | 8.0 | 0.00 | 0.00 | 0.00 | 74 | 1021.9 |
| 20260509180114 | 15 | 340 | 0.0 | 6.4 | 0.00 | 0.00 | 0.00 | 76 | 1022.0 |
| 20260509174601 | 14 | 254 | 0.0 | 8.0 | 0.00 | 0.00 | 0.00 | 75 | 1021.9 |
| 20260509173110 | 15 | 326 | 0.0 | 9.7 | 0.00 | 0.00 | 0.00 | 76 | 1022.1 |
| 20260509171622 | 14 | 328 | 0.0 | 6.4 | 0.00 | 0.00 | 0.00 | 76 | 1022.1 |
| 20260509170011 | 14 | 236 | 0.0 | 8.0 | 0.00 | 0.00 | 0.00 | 75 | 1022.4 |
| 20260509164507 | 13 | 326 | 1.6 | 6.4 | 0.00 | 0.00 | 0.00 | 77 | 1022.3 |
| 20260509163018 | 13 | 349 | 1.6 | 6.4 | 0.00 | 0.00 | 0.00 | 77 | 1022.4 |
| 20260509161520 | 14 | 360 | 0.0 | 4.8 | 0.00 | 0.00 | 0.00 | 78 | 1022.4 |
| 20260509160018 | 13 | 273 | 0.0 | 4.8 | 0.00 | 0.00 | 0.00 | 77 | 1022.5 |
| 20260509154517 | 13 | 298 | 0.0 | 4.8 | 0.00 | 0.00 | 0.00 | 77 | 1022.6 |
| 20260509153021 | 13 | 336 | 0.0 | 3.2 | 0.00 | 0.00 | 0.00 | 76 | 1022.8 |
| 20260509151525 | 13 | 264 | 0.0 | 1.6 | 0.00 | 0.00 | 0.00 | 76 | 1022.7 |
| 20260509150012 | 14 | 274 | 0.0 | 1.6 | 0.00 | 0.00 | 0.00 | 78 | 1022.7 |
| 20260509144516 | 12 | 196 | 0.0 | 0.0 | 0.00 | 0.00 | 0.00 | 86 | 1022.9 |
| 20260509143020 | 11 | 196 | 0.0 | 0.0 | 0.00 | 0.00 | 0.00 | 90 | 1023.0 |
| 20260509141533 | 9 | 196 | 0.0 | 0.0 | 0.00 | 0.00 | 0.00 | 92 | 1022.9 |
| 20260509140010 | 8 | 196 | 0.0 | 0.0 | 0.00 | 0.00 | 0.00 | 92 | 1023.1 |
| 20260509134514 | 8 | 196 | 0.0 | 0.0 | 0.00 | 0.00 | 0.00 | 92 | 1022.9 |
| 20260509133017 | 8 | 196 | 0.0 | 0.0 | 0.00 | 0.00 | 0.00 | 92 | 1023.1 |